Time,TemperatureF,DewpointF,PressureIn,WindDirection,WindDirectionDegrees,WindSpeedMPH,WindSpeedGustMPH,Humidity,HourlyPrecipIn,Conditions,Clouds,dailyrainin,SoftwareType,DateUTC
2013-06-18 00:03:00,64.9,-99.9,-100.00,North,-999,0.0,1.0,-999,0.00,,,-99.99,WeatherLink 5.4,2013-06-18 04:03:00,
2013-06-18 00:33:00,63.6,-99.9,-100.00,NNE,22,0.0,2.0,-999,0.00,,,-99.99,WeatherLink 5.4,2013-06-18 04:33:00,
2013-06-18 01:03:00,63.6,-99.9,-100.00,NNE,22,0.0,2.0,-999,0.00,,,-99.99,WeatherLink 5.4,2013-06-18 05:03:00,
2013-06-18 01:33:00,62.5,-99.9,-100.00,North,-999,0.0,0.0,-999,0.00,,,-99.99,WeatherLink 5.4,2013-06-18 05:33:00,
2013-06-18 02:03:00,62.4,-99.9,-100.00,North,-999,0.0,0.0,-999,0.00,,,-99.99,WeatherLink 5.4,2013-06-18 06:03:00,
2013-06-18 02:33:00,62.2,-99.9,-100.00,North,-999,0.0,0.0,-999,0.00,,,-99.99,WeatherLink 5.4,2013-06-18 06:33:00,
2013-06-18 03:03:00,62.0,-99.9,-100.00,North,-999,0.0,0.0,-999,0.00,,,-99.99,WeatherLink 5.4,2013-06-18 07:03:00,
2013-06-18 03:33:00,61.7,-99.9,-100.00,North,-999,0.0,1.0,-999,0.00,,,-99.99,WeatherLink 5.4,2013-06-18 07:33:00,
2013-06-18 04:03:00,61.1,-99.9,-100.00,North,-999,0.0,0.0,-999,0.00,,,-99.99,WeatherLink 5.4,2013-06-18 08:03:00,
2013-06-18 04:33:00,60.8,-99.9,-100.00,NNE,22,0.0,3.0,-999,0.00,,,-99.99,WeatherLink 5.4,2013-06-18 08:33:00,
2013-06-18 05:03:00,61.2,-99.9,-100.00,North,-999,0.0,1.0,-999,0.00,,,-99.99,WeatherLink 5.4,2013-06-18 09:03:00,
2013-06-18 05:33:00,61.5,-99.9,-100.00,North,-999,0.0,0.0,-999,0.00,,,-99.99,WeatherLink 5.4,2013-06-18 09:33:00,
2013-06-18 06:03:00,61.5,-99.9,-100.00,North,-999,0.0,0.0,-999,0.00,,,-99.99,WeatherLink 5.4,2013-06-18 10:03:00,
2013-06-18 06:33:00,61.0,-99.9,-100.00,North,-999,0.0,0.0,-999,0.00,,,-99.99,WeatherLink 5.4,2013-06-18 10:33:00,
2013-06-18 07:03:00,60.8,-99.9,-100.00,North,-999,0.0,0.0,-999,0.00,,,-99.99,WeatherLink 5.4,2013-06-18 11:03:00,
2013-06-18 07:33:00,60.5,-99.9,-100.00,NNE,22,0.0,2.0,-999,0.00,,,-99.99,WeatherLink 5.4,2013-06-18 11:33:00,
2013-06-18 08:03:00,61.3,-99.9,-100.00,North,-999,0.0,0.0,-999,0.00,,,-99.99,WeatherLink 5.4,2013-06-18 12:03:00,
2013-06-18 08:33:00,62.9,-99.9,-100.00,North,-999,0.0,0.0,-999,0.00,,,-99.99,WeatherLink 5.4,2013-06-18 12:33:00,
2013-06-18 09:03:00,64.0,-99.9,-100.00,North,-999,0.0,0.0,-999,0.00,,,-99.99,WeatherLink 5.4,2013-06-18 13:03:00,
2013-06-18 09:33:00,64.6,-99.9,-100.00,North,-999,0.0,0.0,-999,0.00,,,-99.99,WeatherLink 5.4,2013-06-18 13:33:00,
2013-06-18 10:04:00,65.7,-99.9,-100.00,North,-999,0.0,0.0,-999,0.00,,,-99.99,WeatherLink 5.4,2013-06-18 14:04:00,
2013-06-18 10:33:00,65.5,-99.9,-100.00,North,-999,0.0,0.0,-999,0.00,,,-99.99,WeatherLink 5.4,2013-06-18 14:33:00,
2013-06-18 11:03:00,66.8,-99.9,-100.00,NNE,22,0.0,4.0,-999,0.00,,,-99.99,WeatherLink 5.4,2013-06-18 15:03:00,
2013-06-18 11:33:00,67.8,-99.9,-100.00,North,0,0.0,3.0,-999,0.00,,,-99.99,WeatherLink 5.4,2013-06-18 15:33:00,
2013-06-18 12:03:00,69.4,-99.9,-100.00,NNE,22,0.0,4.0,-999,0.00,,,-99.99,WeatherLink 5.4,2013-06-18 16:03:00,
2013-06-18 12:33:00,70.5,-99.9,-100.00,NNW,337,0.0,6.0,-999,0.00,,,-99.99,WeatherLink 5.4,2013-06-18 16:33:00,
2013-06-18 13:03:00,72.6,-99.9,-100.00,North,0,0.0,5.0,-999,0.00,,,-99.99,WeatherLink 5.4,2013-06-18 17:03:00,
2013-06-18 13:33:00,72.2,-99.9,-100.00,North,0,0.0,5.0,-999,0.00,,,-99.99,WeatherLink 5.4,2013-06-18 17:33:00,
2013-06-18 14:03:00,73.2,-99.9,-100.00,North,0,0.0,6.0,-999,0.00,,,-99.99,WeatherLink 5.4,2013-06-18 18:03:00,
2013-06-18 14:33:00,74.6,-99.9,-100.00,North,0,0.0,5.0,-999,0.00,,,-99.99,WeatherLink 5.4,2013-06-18 18:33:00,
2013-06-18 15:03:00,74.9,-99.9,-100.00,North,0,0.0,7.0,-999,0.00,,,-99.99,WeatherLink 5.4,2013-06-18 19:03:00,
2013-06-18 15:33:00,74.9,-99.9,-100.00,NNE,22,1.0,7.0,-999,0.00,,,-99.99,WeatherLink 5.4,2013-06-18 19:33:00,
2013-06-18 16:03:00,74.5,-99.9,-100.00,NNE,22,1.0,11.0,-999,0.00,,,-99.99,WeatherLink 5.4,2013-06-18 20:03:00,
2013-06-18 16:33:00,73.4,-99.9,-100.00,NE,45,1.0,6.0,-999,0.00,,,-99.99,WeatherLink 5.4,2013-06-18 20:33:00,
2013-06-18 17:03:00,72.2,-99.9,-100.00,NNE,22,1.0,9.0,-999,0.00,,,-99.99,WeatherLink 5.4,2013-06-18 21:03:00,
2013-06-18 17:33:00,71.1,-99.9,-100.00,ENE,67,2.0,9.0,-999,0.00,,,-99.99,WeatherLink 5.4,2013-06-18 21:33:00,
2013-06-18 18:03:00,70.7,-99.9,-100.00,NNE,22,1.0,8.0,-999,0.00,,,-99.99,WeatherLink 5.4,2013-06-18 22:03:00,
2013-06-18 18:33:00,70.7,-99.9,-100.00,ENE,67,1.0,7.0,-999,0.00,,,-99.99,WeatherLink 5.4,2013-06-18 22:33:00,
2013-06-18 19:03:00,70.0,-99.9,-100.00,ENE,67,1.0,6.0,-999,0.00,,,-99.99,WeatherLink 5.4,2013-06-18 23:03:00,
2013-06-18 19:33:00,69.8,-99.9,-100.00,East,90,0.0,6.0,-999,0.00,,,-99.99,WeatherLink 5.4,2013-06-18 23:33:00,
2013-06-18 20:03:00,68.9,-99.9,-100.00,NE,45,1.0,7.0,-999,0.00,,,-99.99,WeatherLink 5.4,2013-06-19 00:03:00,
2013-06-18 20:33:00,67.6,-99.9,-100.00,East,90,0.0,5.0,-999,0.00,,,-99.99,WeatherLink 5.4,2013-06-19 00:33:00,
2013-06-18 21:03:00,66.3,-99.9,-100.00,NNE,22,0.0,2.0,-999,0.00,,,-99.99,WeatherLink 5.4,2013-06-19 01:03:00,
2013-06-18 21:33:00,64.0,-99.9,-100.00,North,-999,0.0,0.0,-999,0.00,,,-99.99,WeatherLink 5.4,2013-06-19 01:33:00,
2013-06-18 22:03:00,62.3,-99.9,-100.00,North,-999,0.0,0.0,-999,0.00,,,-99.99,WeatherLink 5.4,2013-06-19 02:03:00,
2013-06-18 22:33:00,61.1,-99.9,-100.00,North,-999,0.0,0.0,-999,0.00,,,-99.99,WeatherLink 5.4,2013-06-19 02:33:00,
2013-06-18 23:03:00,60.3,-99.9,-100.00,North,-999,0.0,0.0,-999,0.00,,,-99.99,WeatherLink 5.4,2013-06-19 03:03:00,
2013-06-18 23:33:00,59.2,-99.9,-100.00,North,-999,0.0,0.0,-999,0.00,,,-99.99,WeatherLink 5.4,2013-06-19 03:33:00,